2017-008BC

Last updated on Sat Apr 08 2017 01:17:57 GMT+0100 (British Summer Time)

1 41998U 17008BC 17096.89772967 .00002302 00000-0 10382-3 0 9999 2 41998 97.5039 158.4359 0010689 99.9625 260.2817 15.22002540 6930
UTC large
Height (km)
Speed (km/s)
/
Latitude / Longitude
Inclination (degrees)
Orbital Period (minutes)
Azimuth
Elevation
Range (km)
Doppler Factor

Next 0 passes for location: London (51.5072 / 0.1276)

Sorry there are no passes over London.